Location: Unspecified
(0.0000°N, 0.0000°E)
Time: 16:54:27
(UTC+00:00)

Vanguard 1 Rocket - All Passes

Search period start: 12 April 2021 00:00
Search period end: 22 April 2021 00:00
Orbit: 653 x 4223 km, 34.3° (Epoch: 11 April)

Date Brightness Start Highest point End Pass type
(mag) Time Alt. Az. Time Alt. Az. Time Alt. Az.
12 Apr - 01:46:47 10° W 02:05:27 42° SSW 02:29:30 10° SE visible
12 Apr - 04:27:14 10° WSW 04:45:12 22° SSW 05:01:03 10° SSE visible
12 Apr - 07:10:53 10° SSW 07:25:09 21° S 07:34:57 10° SE daylight
12 Apr - 09:44:04 10° SW 09:57:42 43° SSE 10:04:59 10° E daylight
12 Apr - 12:15:47 10° WSW 12:24:06 40° NW 12:29:07 10° NNE daylight
12 Apr - 19:46:21 10° NNE 19:50:55 14° NE 19:56:50 10° ENE visible
12 Apr - 22:06:43 10° NW 22:18:11 64° NE 22:40:04 10° ESE visible
13 Apr - 00:33:00 10° WNW 00:49:20 56° SSW 01:14:43 10° SE visible
13 Apr - 03:07:54 10° WSW 03:26:49 27° SSW 03:46:37 10° SSE visible
13 Apr - 05:52:33 10° SW 06:08:24 20° S 06:20:25 10° SE daylight
13 Apr - 08:29:10 10° SW 08:44:18 31° SSE 08:53:04 10° E daylight
13 Apr - 11:01:02 10° SW 11:13:06 85° NW 11:19:17 10° NE daylight
13 Apr - 20:56:44 10° NNW 21:05:48 39° NE 21:22:08 10° ESE visible
13 Apr - 23:20:45 10° WNW 23:34:26 75° SW 23:59:13 10° SE visible
14 Apr - 01:51:13 10° W 02:09:11 35° SSW 02:31:57 10° SE visible
14 Apr - 04:32:42 10° SW 04:50:11 21° S 05:05:17 10° SE visible
14 Apr - 07:13:19 10° SSW 07:29:33 25° SSE 07:40:00 10° ESE daylight
14 Apr - 09:46:15 10° SW 10:01:11 59° SSE 10:08:41 10° ENE daylight
14 Apr - 12:19:36 10° W 12:26:54 27° NW 12:31:39 10° NNE daylight
14 Apr - 19:47:59 10° N 19:53:57 19° NE 20:02:43 10° E visible
14 Apr - 22:09:37 10° NW 22:20:50 79° NE 22:42:55 10° SE visible
15 Apr - 00:36:49 10° W 00:52:41 46° SSW 01:16:56 10° SE visible
15 Apr - 03:13:19 10° WSW 03:31:26 24° SSW 03:49:58 10° SE visible
15 Apr - 05:56:08 10° SW 06:13:13 22° S 06:25:39 10° SE daylight
15 Apr - 08:31:10 10° SW 08:48:05 41° SSE 08:57:14 10° E daylight
15 Apr - 11:03:59 10° WSW 11:16:01 60° NW 11:22:19 10° NE daylight
15 Apr - 20:59:23 10° NNW 21:08:25 50° NE 21:25:46 10° ESE visible
15 Apr - 23:24:09 10° WNW 23:37:30 61° SSW 00:01:28 10° SE visible
16 Apr - 01:56:00 10° WSW 02:13:16 30° SSW 02:34:37 10° SE visible
16 Apr - 04:37:37 10° SW 04:55:16 21° S 05:10:07 10° SE visible
16 Apr - 07:15:31 10° SW 07:33:41 31° SSE 07:44:42 10° ESE daylight
16 Apr - 09:48:38 10° SW 10:04:24 79° SE 10:12:05 10° ENE daylight
16 Apr - 12:24:05 10° W 12:29:42 18° NW 12:33:48 10° N daylight
16 Apr - 19:50:06 10° N 19:56:47 26° NE 20:07:36 10° E visible
16 Apr - 22:12:42 10° NW 22:23:39 85° SW 22:45:29 10° SE visible
17 Apr - 00:41:00 10° W 00:56:21 38° SSW 01:19:11 10° SE visible
17 Apr - 03:18:45 10° SW 03:36:21 22° S 03:53:55 10° SE visible
17 Apr - 05:59:06 10° SW 06:17:47 26° SSE 06:30:47 10° ESE daylight
17 Apr - 08:33:14 10° SW 08:51:38 53° SSE 09:01:03 10° ENE daylight
17 Apr - 11:07:19 10° WSW 11:18:48 42° NW 11:25:07 10° NNE daylight
17 Apr - 21:02:10 10° NW 21:11:04 64° NE 21:28:57 10° ESE visible
17 Apr - 23:27:49 10° W 23:40:49 50° SSW 00:03:36 10° SE visible
18 Apr - 02:01:08 10° WSW 02:17:43 26° SSW 02:37:39 10° SE visible
18 Apr - 04:41:47 10° SW 05:00:15 23° S 05:15:18 10° SE visible
18 Apr - 07:17:36 10° SW 07:37:33 39° SSE 07:49:01 10° E daylight
18 Apr - 09:51:16 10° SW 10:07:24 79° NW 10:15:16 10° NE daylight
18 Apr - 12:29:49 10° WNW 12:32:37 12° NW 12:35:00 10° NNW daylight
18 Apr - 19:52:31 10° NNW 19:59:29 35° NE 20:11:48 10° ESE visible
18 Apr - 22:16:00 10° WNW 22:26:40 68° SW 22:47:49 10° SE visible
19 Apr - 00:45:31 10° WSW 01:00:19 31° SSW 01:21:35 10° SE visible
19 Apr - 03:23:54 10° SW 03:41:27 22° S 03:58:29 10° SE visible
19 Apr - 06:01:38 10° SW 06:22:03 31° SSE 06:35:38 10° ESE daylight
19 Apr - 08:35:25 10° SW 08:54:56 69° SSE 09:04:35 10° ENE daylight
19 Apr - 11:11:06 10° W 11:21:30 31° NW 11:27:41 10° NNE daylight
19 Apr - 18:44:23 10° N 18:48:16 15° NE 18:53:20 10° ENE visible
19 Apr - 21:05:09 10° NW 21:13:51 82° NE 21:31:47 10° SE visible
19 Apr - 23:31:47 10° W 23:44:25 40° SSW 00:05:43 10° SE visible
20 Apr - 02:06:26 10° SW 02:22:30 23° S 02:41:12 10° SE visible
20 Apr - 04:45:15 10° SW 05:05:00 26° SSE 05:20:33 10° ESE visible
20 Apr - 07:19:40 10° SW 07:41:10 49° SSE 07:52:58 10° E daylight
20 Apr - 09:54:11 10° WSW 10:10:11 60° NW 10:18:13 10° NE daylight
20 Apr - 19:55:09 10° NNW 20:02:10 47° NE 20:15:26 10° ESE visible
20 Apr - 22:19:32 10° WNW 22:29:57 54° SSW 22:49:59 10° SE visible
21 Apr - 00:50:24 10° WSW 01:04:37 27° SSW 01:24:14 10° SE visible
21 Apr - 03:28:27 10° SW 03:46:32 22° S 04:03:36 10° SE visible
21 Apr - 06:03:57 10° SW 06:26:02 38° SSE 06:40:08 10° E daylight
21 Apr - 08:37:48 10° SW 08:57:58 87° SE 09:07:52 10° NE daylight
21 Apr - 11:15:28 10° W 11:24:15 22° NW 11:29:58 10° N daylight
21 Apr - 18:46:11 10° N 18:51:07 22° NE 18:58:27 10° E visible
21 Apr - 21:08:20 10° WNW 21:16:49 78° SW 21:34:20 10° SE visible
